{"data":{"norad_id":54214,"intl_designator":"2022-142A","name":"SHIYAN-20C (SY-20C)","alt_names":[],"object_type":"PAYLOAD","status":"ACTIVE","operator":null,"country":"PRC","launch_date":"2022-10-29","launch_site_code":"JSC","launch_vehicle":null,"mission":null,"orbit_class":"UNKNOWN","rcs_meters":null,"size_class":null,"mass_kg":null,"dimensions":null,"purposes":[],"wikipedia_slug":null,"has_3d_model":false,"image_url":null,"decayed_at":null,"tle_current":{"epoch":"2026-05-25T03:53:01.337856Z","epoch_age_seconds":51310,"freshness":"FRESH","line1":"1 54214U 22142A   26145.16182104  .00000009  00000+0  56835-4 0  9997","line2":"2 54214  59.9978  16.4468 0008425 298.8721  61.1469 14.29512834186405","mean_motion":14.29512834,"eccentricity":0.0008425,"inclination_deg":59.9978,"raan_deg":16.4468,"arg_perigee_deg":298.8721,"mean_anomaly_deg":61.1469,"bstar":5.6835e-5,"rev_number":18640,"period_min":100.73361817751,"perigee_km":787.31770153944,"apogee_km":799.40167345788,"semimajor_km":7171.4966874987,"source":"CELESTRAK","updated_at":"2026-05-25T13:37:58.661010Z"}}}